[[{"header":{"parameterUnit":"m.s-1","parameterCategory":1,"la1":30.2991,"la2":30.254,"lo1":-89.0895,"lo2":-89.0444,"dy":0.0017,"dx":0.0017,"nx":28,"ny":28,"refTime":"2023-09-23T03:00:00:Z","depth":0,"parameterNumber":2,"parameterNumberName":"U-component_of_WINDS"},"data":[0,0,0,0,0,0,0,0,0,0,0,0,0,0,0,0,0,0,0,0,0,0,0,0,0,0,0,0,0,0,0,0,0,0,0,0,0,0,0,0,0,0,0,0,0,0,0,0,0,0,0,0,0,0,0,0,0,0,0.0883,0.0883,0,0.0859,0.0859,0.0858,0.0835,0.0834,0.0834,0.0834,0.0807,0.0807,0.0807,0,0,0,0,0,0,0,0,0,0,0,0,0,0.0908,0.0907,0.0883,0.0883,0.0882,0.0859,0.0859,0.0858,0.0835,0.0834,0.0834,0.0834,0.0807,0.0807,0.0806,0,0,0,0,0,0,0,0,0,0,0,0,0,0.0892,0.0907,0.0883,0.0868,0.0866,0.0859,0.0859,0.0858,0.0835,0.0834,0.0834,0.0833,0.0808,0.0807,0.0806,0.0812,0,0,0.0804,0.0804,0,0,0,0,0,0,0,0,0.0893,0.0891,0.087,0.0869,0.0867,0.0849,0.0858,0.0843,0.0835,0.0847,0.0834,0.0833,0.0822,0.082,0.0816,0.081,0.0809,0.0804,0.0804,0.0804,0.0804,0,0,0,0,0,0,0,0.0894,0.0892,0.0873,0.087,0.0868,0.0862,0.0859,0.0855,0.0837,0.0846,0.0844,0.0841,0.0821,0.0817,0.0815,0.0809,0.0804,0.0804,0.0804,0.0803,0.0807,0.0808,0,0,0,0,0,0,0.0897,0.0893,0.0874,0.0873,0.0879,0.0862,0.0859,0.0855,0.0837,0.0834,0.0842,0.084,0.0818,0.0816,0.0814,0.082,0.0804,0.0803,0.0803,0.0807,0.0807,0.0808,0,0,0,0,0,0,0.0898,0.0896,0.0875,0.0882,0.0879,0.0862,0.0858,0.0855,0.0852,0.0834,0.0831,0.0841,0.0818,0.0815,0.0813,0.0819,0.0803,0.0802,0.0806,0.0807,0.0807,0.0831,0,0,0,0,0,0,0.0899,0.0896,0.0898,0.0882,0.0879,0.0874,0.0859,0.0855,0.0851,0.0849,0.0833,0.083,0.0817,0.0814,0.0812,0.0818,0.0802,0.0805,0.0806,0.0807,0.083,0.0832,0.0835,0,0,0,0,0,0.09,0.0905,0.0898,0.0896,0.0881,0.0875,0.0873,0.0859,0.0851,0.0853,0.0842,0.083,0.0818,0.0814,0.0812,0.0817,0.0805,0.0806,0.0807,0.0828,0.0832,0.0835,0,0,0,0,0,0,0.0921,0.0903,0.0895,0.0896,0.0887,0.0871,0.0873,0.0863,0.0855,0.0854,0.0836,0.0833,0.0832,0.0824,0.082,0.0822,0.081,0.0811,0.0827,0.083,0.0833,0.0835,0.0801,0,0,0,0,0,0.0926,0.0923,0.0907,0.0909,0.0905,0.089,0.0886,0.0877,0.0867,0.0863,0.0851,0.0842,0.0836,0.0832,0.0826,0.0828,0.0825,0.0831,0.0833,0.0836,0.0837,0.0838,0.0841,0.0811,0.0811,0.0811,0,0,0.0936,0.0926,0.0925,0.0913,0.0905,0.0902,0.0887,0.0884,0.0882,0.0862,0.086,0.0851,0.0839,0.0839,0.0839,0.0833,0.0844,0.0837,0.0839,0.0839,0.0839,0.0842,0.0845,0.0812,0.0812,0.0812,0,0,0.0953,0.0945,0.0946,0.0939,0.0927,0.0917,0.0918,0.0903,0.0897,0.0894,0.088,0.0876,0.0866,0.0859,0.0854,0.0869,0.0858,0.0867,0.0881,0.0883,0.0885,0.0887,0.0893,0.0895,0.0868,0.0868,0.0868,0,0.0967,0.0962,0.0948,0.0946,0.0942,0.0925,0.0926,0.092,0.0906,0.0904,0.0897,0.0885,0.0876,0.0875,0.0878,0.0875,0.0875,0.0869,0.0886,0.0888,0.0889,0.0895,0.0897,0.0869,0.0869,0.0869,0.0869,0,0.098,0.0977,0.0979,0.0968,0.0964,0.0964,0.0949,0.0947,0.0937,0.0928,0.0926,0.0914,0.0906,0.0904,0.0895,0.0902,0.0899,0.0889,0.0877,0.0894,0.0899,0.09,0.0871,0.0871,0.087,0.087,0,0,0.1009,0.0991,0.0992,0.0987,0.0974,0.0971,0.097,0.0963,0.0961,0.0953,0.0952,0.0944,0.0936,0.093,0.092,0.0921,0.0935,0.0911,0.0911,0.0917,0.0943,0.095,0.0953,0.0927,0.0928,0.0928,0.0944,0,0.1024,0.1022,0.101,0.1011,0.1009,0.0993,0.0993,0.0984,0.0976,0.0972,0.0962,0.0957,0.0946,0.0943,0.0943,0.0933,0.094,0.0932,0.0926,0.0926,0.093,0.0955,0.0963,0.0979,0.0946,0.0946,0.0946,0,0.1041,0.1035,0.1037,0.1024,0.1023,0.1022,0.1015,0.1012,0.1002,0.0996,0.099,0.0978,0.0977,0.0966,0.0964,0.0958,0.0955,0.095,0.095,0.095,0.0938,0.0956,0.0983,0.0986,0.0949,0.0949,0.0949,0,0.1063,0.1055,0.1055,0.1051,0.1037,0.1037,0.1031,0.1021,0.1018,0.1011,0.1009,0.1001,0.0998,0.0993,0.098,0.0973,0.0979,0.0967,0.0974,0.0974,0.0976,0.0976,0.1004,0.0974,0.0974,0.0974,0.0974,0,0.1081,0.1083,0.1065,0.1065,0.1067,0.1053,0.1055,0.1047,0.1038,0.1037,0.1022,0.1021,0.1004,0.1001,0.0991,0.0991,0.0989,0.0984,0.0981,0.0985,0.0986,0.0983,0.0982,0.0974,0.0974,0.0974,0.0974,0,0.1106,0.1094,0.1093,0.108,0.1077,0.1079,0.1067,0.1067,0.1057,0.1056,0.1054,0.104,0.1036,0.1022,0.1014,0.1007,0.1011,0.1005,0.1014,0.1013,0.1021,0.102,0.1048,0.1051,0.1019,0.1019,0.1019,0,0.1118,0.1119,0.1107,0.1105,0.11,0.1097,0.1094,0.108,0.1077,0.1067,0.1068,0.1062,0.1057,0.1051,0.104,0.1034,0.1028,0.1039,0.1027,0.1032,0.1029,0.1029,0.103,0.1041,0.1041,0.1042,0.1042,0,0.1142,0.1136,0.1132,0.1127,0.1124,0.1118,0.1112,0.1111,0.1096,0.1093,0.1089,0.1085,0.1078,0.1073,0.1066,0.1059,0.1048,0.1046,0.1047,0.1052,0.1057,0.1055,0.1021,0.1045,0.1045,0.1045,0.1044,0.1044,0.1161,0.1162,0.1153,0.1149,0.1144,0.1139,0.1138,0.1129,0.1126,0.1119,0.1111,0.1108,0.1099,0.1088,0.1082,0.108,0.1074,0.1076,0.1076,0.1077,0.1079,0.1057,0.1078,0.1078,0.1078,0.1078,0.1078,0,0.1184,0.1178,0.1175,0.1168,0.1165,0.1156,0.1149,0.1147,0.1145,0.1138,0.1133,0.1129,0.1125,0.1113,0.1108,0.1108,0.1103,0.1107,0.1107,0.1106,0.1085,0.1084,0.1111,0.1111,0.1111,0.1111,0.1111,0.1111,0.1196,0.1197,0.1191,0.1189,0.1183,0.118,0.1177,0.1172,0.1167,0.1163,0.1159,0.1152,0.1144,0.1137,0.1133,0.113,0.1129,0.1134,0.113,0.111,0.1107,0.1104,0.1104,0.1134,0.1134,0.1151,0.1151,0.1151]},{"header":{"parameterUnit":"m.s-1","parameterCategory":1,"la1":30.2991,"la2":30.254,"lo1":-89.0895,"lo2":-89.0444,"dy":0.0017,"dx":0.0017,"nx":28,"ny":28,"refTime":"2023-09-23T03:00:00:Z","depth":0,"parameterNumber":3,"parameterNumberName":"V-component_of_WINDS"},"data":[0,0,0,0,0,0,0,0,0,0,0,0,0,0,0,0,0,0,0,0,0,0,0,0,0,0,0,0,0,0,0,0,0,0,0,0,0,0,0,0,0,0,0,0,0,0,0,0,0,0,0,0,0,0,0,0,0,0,-2.5704,-2.5706,0,-2.5838,-2.584,-2.5841,-2.5887,-2.5886,-2.5886,-2.5885,-2.6017,-2.6021,-2.6024,0,0,0,0,0,0,0,0,0,0,0,0,0,-2.5482,-2.5486,-2.5704,-2.5706,-2.5708,-2.5838,-2.584,-2.5842,-2.5887,-2.5886,-2.5886,-2.5885,-2.6015,-2.602,-2.6025,0,0,0,0,0,0,0,0,0,0,0,0,0,-2.5594,-2.5487,-2.5704,-2.5746,-2.5751,-2.5838,-2.584,-2.5842,-2.5887,-2.5886,-2.5885,-2.5885,-2.6014,-2.602,-2.6025,-2.6078,0,0,-2.6044,-2.6046,0,0,0,0,0,0,0,0,-2.5587,-2.5602,-2.5738,-2.5743,-2.5749,-2.5845,-2.581,-2.5921,-2.5887,-2.5835,-2.5885,-2.5884,-2.596,-2.597,-2.5997,-2.6084,-2.609,-2.6044,-2.6048,-2.6051,-2.6052,0,0,0,0,0,0,0,-2.5579,-2.5596,-2.5757,-2.574,-2.5747,-2.5756,-2.5771,-2.5831,-2.59,-2.584,-2.5843,-2.5859,-2.5963,-2.5991,-2.6,-2.6092,-2.6044,-2.6049,-2.6053,-2.6056,-2.6229,-2.623,0,0,0,0,0,0,-2.5565,-2.5589,-2.5753,-2.5761,-2.5665,-2.5761,-2.5778,-2.5815,-2.59,-2.5912,-2.5859,-2.586,-2.5981,-2.5993,-2.6005,-2.6072,-2.605,-2.6056,-2.606,-2.6228,-2.6229,-2.6231,0,0,0,0,0,0,-2.556,-2.558,-2.5747,-2.5676,-2.5699,-2.5766,-2.5807,-2.5818,-2.5847,-2.5915,-2.5927,-2.5876,-2.5981,-2.5997,-2.606,-2.6077,-2.6059,-2.6064,-2.6227,-2.6229,-2.623,-2.6207,0,0,0,0,0,0,-2.5554,-2.5578,-2.5599,-2.5677,-2.5702,-2.5802,-2.5808,-2.5821,-2.5857,-2.586,-2.5933,-2.5945,-2.5982,-2.6051,-2.6066,-2.6085,-2.6069,-2.6226,-2.6228,-2.623,-2.6206,-2.6207,-2.6208,0,0,0,0,0,-2.5546,-2.5586,-2.56,-2.562,-2.5731,-2.5803,-2.5817,-2.586,-2.5859,-2.588,-2.5924,-2.5942,-2.6073,-2.6057,-2.6074,-2.6096,-2.6225,-2.6227,-2.6229,-2.6206,-2.6207,-2.6208,0,0,0,0,0,0,-2.5507,-2.5597,-2.5614,-2.5681,-2.5734,-2.581,-2.5839,-2.586,-2.5914,-2.5914,-2.5963,-2.5979,-2.6039,-2.6074,-2.6054,-2.6151,-2.615,-2.6156,-2.6126,-2.6128,-2.6129,-2.6119,-2.6074,0,0,0,0,0,-2.5507,-2.5559,-2.5634,-2.5686,-2.5712,-2.5771,-2.5804,-2.5833,-2.5889,-2.5911,-2.5959,-2.6012,-2.6065,-2.6098,-2.6151,-2.6212,-2.6228,-2.6235,-2.6236,-2.6237,-2.6241,-2.6275,-2.6279,-2.6238,-2.6238,-2.6238,0,0,-2.5506,-2.5562,-2.5591,-2.568,-2.5724,-2.5776,-2.5789,-2.5843,-2.5881,-2.5919,-2.5982,-2.6019,-2.6081,-2.6143,-2.6173,-2.6174,-2.6256,-2.624,-2.624,-2.6243,-2.6278,-2.6282,-2.6285,-2.624,-2.6239,-2.6239,0,0,-2.5531,-2.5579,-2.5627,-2.5672,-2.574,-2.5779,-2.5791,-2.5864,-2.5891,-2.5956,-2.5985,-2.603,-2.612,-2.6163,-2.6197,-2.6238,-2.6256,-2.6254,-2.6258,-2.6291,-2.6294,-2.6297,-2.6311,-2.6316,-2.6258,-2.6258,-2.6258,0,-2.552,-2.5601,-2.5649,-2.5701,-2.5739,-2.5777,-2.5826,-2.5867,-2.5947,-2.5972,-2.5972,-2.6087,-2.6131,-2.6204,-2.6214,-2.624,-2.6254,-2.6245,-2.6291,-2.6294,-2.6298,-2.6311,-2.6316,-2.6257,-2.6257,-2.6257,-2.6257,0,-2.5584,-2.5639,-2.567,-2.5749,-2.5791,-2.5841,-2.5895,-2.593,-2.5956,-2.5994,-2.6059,-2.6114,-2.6178,-2.6198,-2.6222,-2.6274,-2.6272,-2.6281,-2.6281,-2.63,-2.6313,-2.6319,-2.6256,-2.6256,-2.6256,-2.6257,0,0,-2.5587,-2.5694,-2.5704,-2.574,-2.5819,-2.5861,-2.5913,-2.5978,-2.6007,-2.6061,-2.6105,-2.6181,-2.619,-2.6228,-2.6258,-2.6287,-2.6315,-2.6292,-2.6294,-2.6293,-2.6374,-2.6366,-2.6372,-2.6328,-2.6329,-2.633,-2.6369,0,-2.5621,-2.5717,-2.5762,-2.5837,-2.5888,-2.5925,-2.597,-2.6022,-2.6059,-2.6106,-2.6147,-2.62,-2.6208,-2.6231,-2.6262,-2.6305,-2.6332,-2.6303,-2.6367,-2.6369,-2.635,-2.6379,-2.6371,-2.6404,-2.6374,-2.6375,-2.6376,0,-2.5673,-2.573,-2.5811,-2.5883,-2.5906,-2.5946,-2.6009,-2.6054,-2.6114,-2.6139,-2.6182,-2.6211,-2.6265,-2.6261,-2.6335,-2.6315,-2.6344,-2.6369,-2.6371,-2.6378,-2.6373,-2.6385,-2.6416,-2.6421,-2.6385,-2.6384,-2.6384,0,-2.5666,-2.5763,-2.5823,-2.5853,-2.594,-2.5967,-2.6004,-2.6063,-2.6099,-2.6153,-2.6177,-2.6236,-2.6268,-2.6313,-2.6356,-2.635,-2.6426,-2.6426,-2.6447,-2.6445,-2.646,-2.6458,-2.6495,-2.648,-2.648,-2.648,-2.648,0,-2.5699,-2.5746,-2.5821,-2.5858,-2.5913,-2.5963,-2.6015,-2.6054,-2.6106,-2.6151,-2.6186,-2.6227,-2.6283,-2.6329,-2.6364,-2.6419,-2.6434,-2.6454,-2.6462,-2.6451,-2.6448,-2.6469,-2.6468,-2.6481,-2.6481,-2.6481,-2.648,0,-2.57,-2.5752,-2.5821,-2.5898,-2.5918,-2.5954,-2.6019,-2.6056,-2.6096,-2.6151,-2.6167,-2.6228,-2.6286,-2.6334,-2.6409,-2.6432,-2.6489,-2.6499,-2.6469,-2.6474,-2.6491,-2.6488,-2.6542,-2.6551,-2.6531,-2.6531,-2.6531,0,-2.5717,-2.5755,-2.5836,-2.5869,-2.5906,-2.5959,-2.5997,-2.6048,-2.6085,-2.6156,-2.6184,-2.6244,-2.6295,-2.6384,-2.6434,-2.6491,-2.6503,-2.6518,-2.6511,-2.6498,-2.6502,-2.6499,-2.6502,-2.6517,-2.6517,-2.6517,-2.6517,0,-2.5741,-2.5765,-2.5819,-2.5882,-2.5927,-2.5978,-2.603,-2.6055,-2.6116,-2.6155,-2.6216,-2.6255,-2.6333,-2.6391,-2.6454,-2.649,-2.6513,-2.6519,-2.6527,-2.6514,-2.6495,-2.6505,-2.6469,-2.6517,-2.6517,-2.6517,-2.6517,-2.6517,-2.575,-2.5785,-2.5848,-2.5907,-2.5952,-2.6001,-2.6039,-2.6084,-2.6136,-2.6204,-2.6231,-2.6292,-2.635,-2.6437,-2.6473,-2.652,-2.6523,-2.6535,-2.6537,-2.6539,-2.6537,-2.6489,-2.6532,-2.6532,-2.6532,-2.6532,-2.6532,0,-2.5775,-2.5818,-2.5872,-2.5945,-2.5991,-2.6011,-2.607,-2.6107,-2.6161,-2.6214,-2.6264,-2.6332,-2.639,-2.6445,-2.6505,-2.6532,-2.6544,-2.6546,-2.6543,-2.6551,-2.6531,-2.6518,-2.6535,-2.6535,-2.6535,-2.6535,-2.6535,-2.6535,-2.5794,-2.5855,-2.5886,-2.5969,-2.6012,-2.6073,-2.6105,-2.6149,-2.6192,-2.6268,-2.6317,-2.6353,-2.6407,-2.6471,-2.6524,-2.6538,-2.6558,-2.6557,-2.6574,-2.6554,-2.6553,-2.6552,-2.654,-2.6561,-2.6561,-2.6591,-2.6591,-2.6591]}]]